TimeEST,TemperatureF,Dew PointF,Humidity,Sea Level PressureIn,VisibilityMPH,Wind Direction,Wind SpeedMPH,Gust SpeedMPH,PrecipitationIn,Events,Conditions,WindDirDegrees,DateUTC
12:53 AM,25.0,19.0,78,30.24,9.0,West,12.7,21.9,N/A,,Overcast,280,2013-02-09 05:53:00
1:53 AM,25.0,19.0,78,30.26,9.0,WNW,10.4,20.7,N/A,,Overcast,290,2013-02-09 06:53:00
2:53 AM,25.0,19.0,78,30.29,9.0,WNW,11.5,17.3,N/A,,Overcast,290,2013-02-09 07:53:00
3:53 AM,25.0,17.1,72,30.30,10.0,WNW,5.8,-,N/A,,Overcast,290,2013-02-09 08:53:00
4:01 AM,24.8,17.6,74,30.25,10.0,West,5.8,-,N/A,,Overcast,270,2013-02-09 09:01:00
4:08 AM,24.8,19.4,80,30.25,10.0,West,4.6,-,N/A,,Overcast,280,2013-02-09 09:08:00
4:53 AM,24.1,19.0,81,30.32,10.0,WNW,5.8,-,N/A,,Overcast,290,2013-02-09 09:53:00
5:53 AM,25.0,18.0,75,30.35,10.0,West,5.8,-,N/A,,Overcast,280,2013-02-09 10:53:00
6:53 AM,24.1,18.0,77,30.37,10.0,WNW,8.1,-,N/A,,Overcast,290,2013-02-09 11:53:00
7:53 AM,24.1,17.1,75,30.39,10.0,NW,6.9,-,N/A,,Overcast,310,2013-02-09 12:53:00
8:53 AM,25.0,17.1,72,30.41,10.0,West,4.6,-,N/A,,Overcast,280,2013-02-09 13:53:00
9:53 AM,25.0,17.1,72,30.43,10.0,WNW,10.4,-,N/A,,Overcast,300,2013-02-09 14:53:00
10:53 AM,26.1,16.0,66,30.44,10.0,WNW,8.1,-,N/A,,Overcast,290,2013-02-09 15:53:00
11:53 AM,28.0,16.0,61,30.42,10.0,WNW,5.8,-,N/A,,Mostly Cloudy,300,2013-02-09 16:53:00
12:01 PM,28.4,15.8,59,30.36,10.0,West,8.1,-,N/A,,Scattered Clouds,280,2013-02-09 17:01:00
12:53 PM,30.0,16.0,56,30.40,10.0,West,8.1,-,N/A,,Clear,260,2013-02-09 17:53:00
1:53 PM,30.9,16.0,54,30.39,10.0,NNW,3.5,-,N/A,,Clear,340,2013-02-09 18:53:00
2:53 PM,33.1,16.0,50,30.38,10.0,Variable,6.9,-,N/A,,Clear,0,2013-02-09 19:53:00
3:53 PM,33.1,16.0,50,30.38,10.0,SW,5.8,-,N/A,,Clear,230,2013-02-09 20:53:00
4:53 PM,32.0,17.1,54,30.40,10.0,SW,5.8,-,N/A,,Clear,220,2013-02-09 21:53:00
5:53 PM,30.0,15.1,54,30.38,10.0,Calm,Calm,-,N/A,,Clear,0,2013-02-09 22:53:00
6:53 PM,28.9,15.1,56,30.39,10.0,Calm,Calm,-,N/A,,Clear,0,2013-02-09 23:53:00
7:53 PM,27.0,15.1,61,30.39,10.0,Calm,Calm,-,N/A,,Clear,0,2013-02-10 00:53:00
8:53 PM,27.0,15.1,61,30.40,10.0,Calm,Calm,-,N/A,,Clear,0,2013-02-10 01:53:00
9:53 PM,25.0,15.1,66,30.40,10.0,Calm,Calm,-,N/A,,Clear,0,2013-02-10 02:53:00
10:53 PM,23.0,14.0,68,30.39,10.0,East,4.6,-,N/A,,Clear,90,2013-02-10 03:53:00
11:53 PM,24.1,15.1,69,30.37,10.0,East,8.1,-,N/A,,Clear,100,2013-02-10 04:53:00